This is the latest recevied weather packets stored in our database for station/object W4CKA. If no packets are shown the sender has not sent any weather packets the latest 10 day(s).
| Time | Temp. | Humidity | Pressure | Rain* | Wind** | Luminosity | Snow |
|---|---|---|---|---|---|---|---|
| 1787763553 | 27.78° C | 69% | 1059.7 hPa | 0 mm | - | 603 W/m² | - |
| 1787762949 | 28.33° C | 71% | 1059.7 hPa | 0 mm | - | 613 W/m² | - |
| 1787762346 | 27.22° C | 68% | 1060 hPa | 0 mm | - | 456 W/m² | - |
| 1787761745 | 27.22° C | 66% | 1060 hPa | 0 mm | - | 604 W/m² | - |
| 1787761141 | 26.67° C | 72% | 1060.1 hPa | 0 mm | - | 592 W/m² | - |
| 1787760538 | 27.22° C | 74% | 1060.4 hPa | 0 mm | - | 568 W/m² | - |
| 1787759936 | 26.67° C | 74% | 1060.4 hPa | 0 mm | - | 579 W/m² | - |
| 1787759333 | 25.56° C | 75% | 1060.7 hPa | 0 mm | - | 522 W/m² | - |
| 1787758733 | 25.56° C | 75% | 1060.8 hPa | 0 mm | - | 579 W/m² | - |
| 1787758133 | 25.56° C | 76% | 1060.7 hPa | 0 mm | - | 617 W/m² | - |
| 1787757531 | 25° C | 78% | 1060.9 hPa | 0 mm | - | 568 W/m² | - |
| 1787756929 | 25° C | 78% | 1060.8 hPa | 0 mm | - | 525 W/m² | - |
| 1787756324 | 24.44° C | 78% | 1060.6 hPa | 0 mm | - | 585 W/m² | - |
| 1787755725 | 24.44° C | 78% | 1060.8 hPa | 0 mm | - | 621 W/m² | - |
| 1787755124 | 23.89° C | 80% | 1060.8 hPa | 0 mm | - | 269 W/m² | - |
| 1787754524 | 23.89° C | 79% | 1060.9 hPa | 0 mm | - | 470 W/m² | - |
| 1787753918 | 22.22° C | 82% | 1060.9 hPa | 0 mm | - | 343 W/m² | - |
| 1787753316 | 21.67° C | 83% | 1060.7 hPa | 0 mm | - | 391 W/m² | - |
| 1787752716 | 21.11° C | 85% | 1060.8 hPa | 0 mm | - | 416 W/m² | - |
| 1787752112 | 20.56° C | 89% | 1060.9 hPa | 0 mm | - | 303 W/m² | - |
| 1787751513 | 20° C | 88% | 1060.9 hPa | 0 mm | - | 253 W/m² | - |
| 1787750909 | 19.44° C | 89% | 1061 hPa | 0 mm | - | 350 W/m² | - |
| 1787750305 | 19.44° C | 90% | 1061 hPa | 0 mm | - | 136 W/m² | - |
| 1787749703 | 18.33° C | 91% | 1060.9 hPa | 0 mm | - | 176 W/m² | - |
| 1787749097 | 17.78° C | 94% | 1061.2 hPa | 0 mm | - | 146 W/m² | - |
* Rain latest hour (hover to see other rain measurements)
** Current wind speed in m/s (hover to see current wind gust speed)